This is the latest recevied weather packets stored in our database for station/object N5COP-13. If no packets are shown the sender has not sent any weather packets the latest 10 day(s).
| Time | Temp. | Humidity | Pressure | Rain* | Wind** | Luminosity | Snow |
|---|---|---|---|---|---|---|---|
| 1777997715 | 14.44° C | 46% | 1011.7 hPa | 0 mm | - | 632 W/m² | - |
| 1777997412 | 15° C | 46% | 1011.7 hPa | 0 mm | - | 382 W/m² | - |
| 1777997110 | 15° C | 46% | 1011.6 hPa | 0 mm | - | 381 W/m² | - |
| 1777996806 | 15° C | 45% | 1011.5 hPa | 0 mm | - | 318 W/m² | - |
| 1777996497 | 15° C | 44% | 1011.4 hPa | 0 mm | - | 537 W/m² | - |
| 1777996194 | 15° C | 45% | 1011.3 hPa | 0 mm | - | 690 W/m² | - |
| 1777995890 | 15° C | 44% | 1011.4 hPa | 0 mm | - | 539 W/m² | - |
| 1777995586 | 15° C | 45% | 1011.2 hPa | 0 mm | - | 354 W/m² | - |
| 1777995284 | 14.44° C | 45% | 1010.9 hPa | 0 mm | - | 554 W/m² | - |
| 1777994981 | 14.44° C | 45% | 1010.9 hPa | 0 mm | - | 550 W/m² | - |
| 1777994677 | 14.44° C | 45% | 1010.8 hPa | 0 mm | - | 704 W/m² | - |
| 1777994372 | 13.89° C | 46% | 1010.9 hPa | 0 mm | - | 500 W/m² | - |
| 1777994068 | 13.33° C | 46% | 1010.6 hPa | 0 mm | - | 451 W/m² | - |
| 1777993765 | 13.33° C | 46% | 1010.7 hPa | 0 mm | - | 295 W/m² | - |
| 1777993456 | 13.33° C | 46% | 1010.8 hPa | 0 mm | - | 402 W/m² | - |
| 1777993151 | 13.33° C | 47% | 1010.8 hPa | 0 mm | - | 408 W/m² | - |
| 1777992849 | 12.78° C | 47% | 1010.8 hPa | 0 mm | - | 351 W/m² | - |
| 1777992546 | 12.78° C | 48% | 1010.7 hPa | 0 mm | - | 257 W/m² | - |
| 1777992239 | 12.78° C | 48% | 1010.6 hPa | 0 mm | - | 226 W/m² | - |
| 1777991936 | 12.22° C | 48% | 1010.6 hPa | 0 mm | - | 281 W/m² | - |
| 1777991633 | 12.78° C | 48% | 1010.8 hPa | 0 mm | - | 227 W/m² | - |
| 1777991330 | 12.22° C | 48% | 1010.8 hPa | 0 mm | - | 249 W/m² | - |
| 1777991028 | 12.78° C | 48% | 1010.8 hPa | 0 mm | - | 222 W/m² | - |
| 1777990725 | 12.78° C | 48% | 1010.7 hPa | 0 mm | - | 322 W/m² | - |
| 1777990422 | 12.22° C | 49% | 1010.9 hPa | 0 mm | - | 348 W/m² | - |
* Rain latest hour (hover to see other rain measurements)
** Current wind speed in m/s (hover to see current wind gust speed)